DW0501 Weather Reports


time (UTC)temp
C
wind
direction
speed
KPH
gust
KPH
rain 1hr
cm
rain 24hr
cm
rain mn
cm
humidity
%
barometer
mb
20260504100532 7 282 0.0 0.0 0.00 0.00 0.00 82 1014.0
20260504081534 7 282 0.0 0.0 0.00 0.00 0.00 83 1014.5
20260504081024 7 282 0.0 0.0 0.00 0.00 0.00 83 1014.5
20260504080524 7 282 0.0 0.0 0.00 0.00 0.00 83 1014.4
20260504050510 5 282 0.0 0.0 0.00 0.00 0.00 80 1014.8
20260504050010 5 282 0.0 0.0 0.00 0.00 0.00 80 1014.8
20260504045509 5 282 0.0 0.0 0.00 0.00 0.00 80 1014.8
20260504045010 5 282 0.0 0.0 0.00 0.00 0.00 79 1014.8
20260504044509 5 282 0.0 0.0 0.00 0.00 0.00 79 1014.8
20260504044008 5 282 0.0 0.0 0.00 0.00 0.00 79 1014.8
20260504043508 5 282 0.0 0.0 0.00 0.00 0.00 79 1014.7
20260504043009 5 282 0.0 0.0 0.00 0.00 0.00 78 1014.7
20260504042507 5 282 0.0 0.0 0.00 0.00 0.00 78 1014.7
20260504042006 5 282 0.0 0.0 0.00 0.00 0.00 78 1014.8
20260504041506 5 282 0.0 0.0 0.00 0.00 0.00 78 1014.8
20260504041006 5 282 0.0 0.0 0.00 0.00 0.00 77 1014.8
20260504040505 5 282 0.0 0.0 0.00 0.00 0.00 77 1014.8
20260504040006 6 282 0.0 0.0 0.00 0.00 0.00 77 1014.8
20260504035504 6 282 0.0 0.0 0.00 0.00 0.00 76 1014.8
20260504035005 6 282 0.0 0.0 0.00 0.00 0.00 76 1014.6
20260504034508 6 282 0.0 0.0 0.00 0.00 0.00 75 1014.6
20260504034003 6 282 0.0 0.0 0.00 0.00 0.00 75 1014.6
20260504033503 6 282 0.0 0.0 0.00 0.00 0.00 74 1014.4
20260504033012 6 282 0.0 0.0 0.00 0.00 0.00 73 1014.4
20260504032504 6 282 0.0 0.0 0.00 0.00 0.00 73 1014.4
20260504032004 6 282 0.0 0.0 0.00 0.00 0.00 73 1014.3
20260504031506 6 282 0.0 0.0 0.00 0.00 0.00 72 1014.3
20260504031005 6 282 0.0 0.0 0.00 0.00 0.00 72 1014.3
20260504030502 7 282 0.0 0.0 0.00 0.00 0.00 71 1014.2
20260504030004 7 282 0.0 0.0 0.00 0.00 0.00 71 1014.2
20260504025502 7 282 0.0 0.0 0.00 0.00 0.00 71 1014.2
20260504025002 7 282 0.0 0.0 0.00 0.00 0.00 70 1014.2
20260504024508 7 282 0.0 0.0 0.00 0.00 0.00 70 1014.2
20260504024005 7 282 0.0 0.0 0.00 0.00 0.00 69 1014.2
20260504023502 7 282 0.0 0.0 0.00 0.00 0.00 68 1014.1
20260504023002 7 282 0.0 0.0 0.00 0.00 0.00 68 1014.1
20260504022502 7 282 0.0 0.0 0.00 0.00 0.00 67 1014.1
20260504022005 8 282 0.0 0.0 0.00 0.00 0.00 67 1014.1
20260504021501 8 282 0.0 0.0 0.00 0.00 0.00 66 1014.1
20260504021001 8 282 0.0 0.0 0.00 0.00 0.00 64 1014.1
20260504020501 8 282 0.0 0.0 0.00 0.00 0.00 64 1013.9
20260504020002 8 282 0.0 0.0 0.00 0.00 0.00 63 1013.9
20260504015600 8 282 0.0 0.0 0.00 0.00 0.00 63 1013.9
20260504015100 8 282 0.0 0.0 0.00 0.00 0.00 62 1013.9
20260504014601 8 282 0.0 0.0 0.00 0.00 0.00 61 1014.0
20260504014059 9 282 0.0 0.0 0.00 0.00 0.00 61 1014.0
20260504013601 9 282 0.0 0.0 0.00 0.00 0.00 59 1014.0
20260504013112 9 282 0.0 0.0 0.00 0.00 0.00 59 1013.8
20260504012600 9 282 0.0 0.0 0.00 0.00 0.00 58 1013.8
20260504012103 10 282 0.0 0.0 0.00 0.00 0.00 58 1013.8
20260504011559 10 282 0.0 0.0 0.00 0.00 0.00 56 1013.7
20260504011101 10 282 0.0 0.0 0.00 0.00 0.00 56 1013.7
20260504010559 10 282 0.0 0.0 0.00 0.00 0.00 55 1013.7
20260504005558 11 282 0.0 0.0 0.00 0.00 0.00 53 1013.7
20260504005058 11 282 0.0 0.0 0.00 0.00 0.00 52 1013.4
20260504004621 11 282 0.0 0.0 0.00 0.00 0.00 50 1013.4
20260504004057 11 282 0.0 0.0 0.00 0.00 0.00 49 1013.4
20260504003557 11 282 0.0 0.0 0.00 0.00 0.00 48 1013.3
20260504003101 12 282 0.0 0.0 0.00 0.00 0.00 47 1013.3
20260504002557 12 282 0.0 0.0 0.00 0.00 0.00 46 1013.3
20260504002059 12 282 0.0 0.0 0.00 0.00 0.00 44 1013.2
20260504001604 13 282 0.0 0.0 0.00 0.00 0.00 43 1013.2
20260504001100 13 282 0.0 0.0 0.00 0.00 0.00 42 1013.2
20260504000556 13 282 0.0 0.0 0.00 0.00 0.00 41 1013.1
20260504000056 13 282 0.0 0.0 0.00 0.00 0.00 40 1013.1
20260503235556 14 282 0.0 0.0 0.00 0.00 0.00 39 1013.1
20260503235100 14 282 0.0 0.0 0.00 0.00 0.00 38 1013.0
20260503234556 15 282 0.0 0.0 0.00 0.00 0.00 36 1013.0
20260503234056 15 282 0.0 0.0 0.00 0.00 0.00 36 1013.0
20260503233555 15 282 0.0 0.0 0.00 0.00 0.00 34 1012.8
20260503233056 15 282 0.0 0.0 0.00 0.00 0.00 31 1012.8
20260503232555 16 284 0.0 0.0 0.00 0.00 0.00 30 1012.8
20260503232058 16 257 0.0 0.0 0.00 0.00 0.00 30 1012.8
20260503231557 16 256 0.0 0.0 0.00 0.00 0.00 29 1012.8
20260503231057 16 256 0.0 0.0 0.00 0.00 0.00 30 1012.8
20260503230556 16 256 0.0 0.0 0.00 0.00 0.00 29 1012.7
20260503230054 16 256 0.0 0.0 0.00 0.00 0.00 29 1012.7
20260503225554 16 256 0.0 0.0 0.00 0.00 0.00 27 1012.7
20260503225054 16 281 0.0 0.0 0.00 0.00 0.00 28 1012.9
20260503224554 17 270 0.0 0.0 0.00 0.00 0.00 28 1012.9
20260503224054 17 270 0.0 0.0 0.00 0.00 0.00 27 1012.9
20260503223554 18 274 0.0 0.0 0.00 0.00 0.00 27 1012.9
20260503223057 18 257 1.6 0.0 0.00 0.00 0.00 27 1012.9
20260503222552 18 243 1.6 0.0 0.00 0.00 0.00 27 1012.9
20260503222055 18 305 0.0 0.0 0.00 0.00 0.00 28 1012.8
20260503221555 17 196 0.0 0.0 0.00 0.00 0.00 28 1012.8
20260503221056 18 236 1.6 0.0 0.00 0.00 0.00 26 1012.8
20260503220552 18 285 1.6 0.0 0.00 0.00 0.00 27 1012.9
20260503220058 18 258 1.6 0.0 0.00 0.00 0.00 27 1012.9
20260503215551 17 302 4.8 0.0 0.00 0.00 0.00 27 1012.9
20260503215051 17 168 3.2 0.0 0.00 0.00 0.00 27 1012.9
20260503214550 17 296 3.2 0.0 0.00 0.00 0.00 27 1012.9
20260503214049 17 264 4.8 0.0 0.00 0.00 0.00 26 1012.9
20260503213549 17 256 6.4 0.0 0.00 0.00 0.00 27 1012.9
20260503213053 17 285 6.4 0.0 0.00 0.00 0.00 26 1012.9
20260503212549 17 260 4.8 0.0 0.00 0.00 0.00 27 1012.9
20260503212049 17 315 4.8 0.0 0.00 0.00 0.00 28 1013.0
20260503211551 17 318 4.8 0.0 0.00 0.00 0.00 27 1013.0
20260503211051 17 282 3.2 0.0 0.00 0.00 0.00 27 1013.0
20260503210548 17 326 3.2 0.0 0.00 0.00 0.00 27 1013.0
20260503210047 17 237 4.8 0.0 0.00 0.00 0.00 28 1013.0
20260503205546 17 229 6.4 0.0 0.00 0.00 0.00 27 1013.0
20260503205046 17 179 6.4 0.0 0.00 0.00 0.00 27 1013.0
20260503204547 17 289 6.4 0.0 0.00 0.00 0.00 27 1013.0
20260503204046 17 352 6.4 0.0 0.00 0.00 0.00 27 1013.0
20260503203546 17 320 6.4 0.0 0.00 0.00 0.00 27 1013.2
20260503203046 17 298 8.0 0.0 0.00 0.00 0.00 28 1013.2
20260503202548 17 322 8.0 0.0 0.00 0.00 0.00 27 1013.2
20260503202046 16 322 9.7 0.0 0.00 0.00 0.00 28 1013.3
20260503201544 16 265 8.0 0.0 0.00 0.00 0.00 27 1013.3
20260503201047 17 277 6.4 0.0 0.00 0.00 0.00 29 1013.3
20260503200545 17 296 6.4 0.0 0.00 0.00 0.00 28 1013.5
20260503200047 17 233 6.4 0.0 0.00 0.00 0.00 31 1013.5
20260503195544 17 243 4.8 0.0 0.00 0.00 0.00 29 1013.5
20260503195043 17 251 4.8 0.0 0.00 0.00 0.00 30 1013.8
20260503194548 17 230 3.2 0.0 0.00 0.00 0.00 30 1013.8
20260503194042 17 309 4.8 0.0 0.00 0.00 0.00 31 1013.8
20260503193542 16 287 6.4 0.0 0.00 0.00 0.00 30 1013.9
20260503193043 16 299 4.8 0.0 0.00 0.00 0.00 33 1013.9
20260503192540 16 298 6.4 0.0 0.00 0.00 0.00 32 1013.9
20260503192040 16 285 8.0 0.0 0.00 0.00 0.00 31 1014.3
20260503191541 16 299 6.4 0.0 0.00 0.00 0.00 30 1014.3
20260503191040 16 0 4.8 0.0 0.00 0.00 0.00 33 1014.3
20260503190540 16 243 4.8 0.0 0.00 0.00 0.00 33 1014.3
20260503190044 15 319 6.4 0.0 0.00 0.00 0.00 35 1014.3
20260503185538 15 263 6.4 0.0 0.00 0.00 0.00 30 1014.3
20260503185040 15 326 4.8 0.0 0.00 0.00 0.00 32 1014.5
20260503184549 15 298 8.0 0.0 0.00 0.00 0.00 34 1014.5
20260503184038 15 3 8.0 0.0 0.00 0.00 0.00 33 1014.5
20260503183538 15 316 6.4 0.0 0.00 0.00 0.00 31 1014.6
20260503183037 15 318 4.8 0.0 0.00 0.00 0.00 34 1014.6
20260503182543 15 304 3.2 0.0 0.00 0.00 0.00 34 1014.6
20260503182038 15 143 4.8 0.0 0.00 0.00 0.00 36 1014.8
20260503181537 15 356 4.8 0.0 0.00 0.00 0.00 35 1014.8
20260503181034 15 302 6.4 0.0 0.00 0.00 0.00 33 1014.8
20260503180533 15 323 4.8 0.0 0.00 0.00 0.00 33 1015.0
20260503180033 15 330 4.8 0.0 0.00 0.00 0.00 35 1015.0
20260503175531 14 326 4.8 0.0 0.00 0.00 0.00 36 1015.0
20260503175031 14 289 4.8 0.0 0.00 0.00 0.00 36 1015.0
20260503174541 14 281 6.4 0.0 0.00 0.00 0.00 37 1015.0
20260503174034 14 285 4.8 0.0 0.00 0.00 0.00 36 1015.0
20260503173530 14 208 3.2 0.0 0.00 0.00 0.00 35 1015.3
20260503173030 14 353 4.8 0.0 0.00 0.00 0.00 38 1015.3
20260503172529 14 323 4.8 0.0 0.00 0.00 0.00 35 1015.3
20260503172032 14 289 3.2 0.0 0.00 0.00 0.00 36 1015.1
20260503171528 14 260 6.4 0.0 0.00 0.00 0.00 36 1015.1
20260503171028 13 188 6.4 0.0 0.00 0.00 0.00 35 1015.1
20260503170530 13 1 6.4 0.0 0.00 0.00 0.00 36 1015.3
20260503151010 10 274 8.0 0.0 0.00 0.00 0.00 41 1015.8
20260503150510 10 64 8.0 0.0 0.00 0.00 0.00 40 1015.9
20260503131035 8 304 6.4 0.0 0.00 0.00 0.00 52 1016.1
20260503130535 8 267 6.4 0.0 0.00 0.00 0.00 52 1016.1
20260503110528 5 244 1.6 0.0 0.00 0.00 0.00 72 1014.9